Location: Jefferson
(30.9666°N, 81.7901°W)
Time: 18:31:16
(UTC+00:00)

ACS3 Solar Sail - Visible Passes

Search period start: 22 May 2025 00:00
Search period end: 01 June 2025 00:00
Orbit: 934 x 1009 km, 97.5° (Epoch: 21 May)

Date Brightness Start Highest point End Pass type
(mag) Time Alt. Az. Time Alt. Az. Time Alt. Az.
24 May 4.8 09:33:48 10° ENE 09:35:22 11° E 09:36:55 10° ESE visible
25 May 4.3 09:54:54 10° NE 09:59:13 20° E 10:03:33 10° SE visible
29 May 4.4 09:46:12 10° NE 09:50:09 18° E 09:54:07 10° SE visible
